www.pogodaiklimat.ru

Погода и климат >> Архив погоды >> Южная Африка >> Парк Tsitsikamma


ПОГОДА в Парке Tsitsikamma

  • Прогноз погоды в Парке Tsitsikamma
  • Монитор погоды в Парке Tsitsikamma

АРХИВ ПОГОДЫ в Парке Tsitsikamma

Время (UTC), дата Ветер
(напр.,м/с)
 
Видим.   Явления Облачность Т
(С)
Тd
(С)
f
(%)
Тe
(С)
Тes
(С)
Комфортность P
(гПа)
Po
(гПа)
Тmin
(С)
Tmax
(С)
R
(мм)
R24
(мм)
S
(см)
03 9.06 СВ 1 н/о н/о +12.6 +10.3 86 +13 +13 1018.8 1018.0 +12.3 +21.4
06 9.06 ЮЗ 1 н/о н/о +13.3 +11.0 86 +13 +13 1016.8 1016.0 +12.3
09 9.06 С 2 н/о н/о +22.7 +15.1 62 +27 +27 душно 1014.6 1013.8 +12.3 +22.7
12 9.06 СВ 1 н/о н/о +24.8 +13.2 48 +27 +27 жарко 1013.1 1012.3 +12.3 +29.0
15 9.06 СВ 3 н/о н/о +21.7 +10.0 47 +23 +23 комфорт 1012.0 1011.2 +19.7 +29.0
18 9.06 СЗ 2 н/о н/о +25.3 +0.9 20 +24 +24 комфорт 1012.3 1011.5 +18.5 +29.0
21 9.06 З 4 н/о н/о +18.5 +12.1 66 +19 +19 1017.6 1016.8 +18.5 +29.0
00 10.06 З 2 н/о н/о +17.8 +12.3 70 +19 +19 1018.7 1017.9 +17.5 +29.0
03 10.06 С 1 н/о н/о +15.1 +10.9 76 +16 +16 1018.7 1017.9 +15.1 +29.0
06 10.06 С 2 н/о н/о +15.8 +10.4 70 +16 +16 1021.3 1020.5 +14.7
09 10.06 З 3 н/о н/о +19.2 +11.3 60 +20 +20 1022.6 1021.8 +14.7 +19.7
15 10.06 З 1 н/о н/о +16.7 +12.8 78 +18 +18 1022.9 1022.1 +16.7 +19.7
18 10.06 С 2 н/о н/о +15.6 +12.2 80 +16 +16 1023.8 1023.0 +15.6 +19.7
21 10.06 С 3 н/о н/о +15.6 +12.2 80 +15 +15 1023.4 1022.6 +14.5 +19.7
00 11.06 СВ 5 н/о н/о +14.7 +11.3 80 +13 +13 1022.6 1021.8 +14.5 +19.7
03 11.06 СВ 2 н/о н/о +13.3 +10.1 81 +13 +13 1020.5 1019.7 +13.3 +19.7
06 11.06 СВ 4 н/о н/о +11.3 +9.2 87 +9 +9 1019.3 1018.5 +11.3
09 11.06 СВ 1 н/о н/о +19.6 +14.4 72 +22 +22 комфорт 1018.1 1017.3 +11.3 +19.6
12 11.06 штиль 0 н/о н/о +20.8 +14.0 65 +23 +23 комфорт 1013.3 1012.5 +11.3 +21.3
15 11.06 СЗ 1 н/о н/о +15.3 +10.9 75 +16 +16 1011.9 1011.1 +15.3 +21.3
18 11.06 С 1 н/о н/о +13.9 +9.1 73 +14 +14 1012.8 1012.0 +13.6 +21.3
21 11.06 СВ 2 н/о н/о +14.9 +11.3 79 +15 +15 1015.2 1014.4 +13.3 +21.3
00 12.06 СЗ 1 н/о н/о +13.6 +10.2 80 +14 +14 1015.7 1014.9 +13.3 +21.3
03 12.06 С 1 н/о н/о +15.9 +9.8 67 +17 +17 1017.5 1016.7 +13.3 +21.3
06 12.06 З 3 н/о н/о +16.5 +10.4 67 +16 +16 1020.2 1019.4 +13.3
09 12.06 З 3 н/о н/о +16.8 +10.4 66 +17 +17 1022.1 1021.3 +13.3 +16.8
12 12.06 З 11 н/о н/о +15.3 +10.3 72 +13 +13 1023.4 1022.6 +13.3 +16.8
15 12.06 З 7 н/о н/о +14.9 +8.6 66 +13 +13 1026.2 1025.4 +14.9 +16.8
18 12.06 З 3 н/о н/о +13.2 +8.7 74 +12 +12 1029.4 1028.6 +13.2 +16.8
21 12.06 СВ 2 н/о н/о +11.5 +7.0 74 +11 +11 1031.4 1030.6 +11.4 +16.8
00 13.06 СВ 2 н/о н/о +10.9 +6.4 74 +10 +10 1032.6 1031.8 +10.8 +16.8 0.2
03 13.06 СВ 2 н/о н/о +10.5 +6.0 74 +9 +9 1033.4 1032.6 +10.5 +16.8
06 13.06 СВ 3 н/о н/о +10.2 +5.2 71 +8 +8 1035.3 1034.5 +10.1 0.2
09 13.06 З 2 н/о н/о +16.0 +5.3 49 +16 +16 1035.9 1035.1 +10.1 +16.1
12 13.06 Ю 2 н/о н/о +18.0 +8.3 53 +19 +19 1033.7 1032.9 +10.1 +18.0
15 13.06 С 1 н/о н/о +12.4 +6.9 69 +13 +13 1032.2 1031.4 +12.4 +18.0
18 13.06 В 3 н/о н/о +9.7 +6.2 79 +8 +8 1032.2 1031.4 +9.7 +18.0
21 13.06 С 3 н/о н/о +10.4 +5.8 73 +8 +8 1032.2 1031.4 +9.1 +18.0
00 14.06 СВ 3 н/о н/о +7.2 +3.8 79 +4 +4 1029.7 1028.9 +7.2 +18.0
03 14.06 СВ 3 н/о н/о +6.1 +2.7 79 +3 +3 1028.4 1027.6 +6.0 +18.0
06 14.06 СВ 3 н/о н/о +6.3 +1.8 73 +3 +3 1029.2 1028.4 +5.6
09 14.06 штиль 0 н/о н/о +17.6 +9.3 58 +18 +18 1029.9 1029.1 +5.6 +17.6
12 14.06 штиль 0 н/о н/о +20.7 +8.1 44 +22 +22 комфорт 1027.0 1026.2 +5.6 +20.8
15 14.06 С 2 н/о н/о +12.4 +7.1 70 +12 +12 1026.2 1025.4 +12.4 +20.8
18 14.06 С 3 н/о н/о +12.0 +3.0 54 +11 +11 1026.6 1025.8 +11.3 +20.8
21 14.06 СВ 4 н/о н/о +8.4 +4.2 75 +6 +6 1025.6 1024.8 +8.4 +20.8
00 15.06 СВ 1 н/о н/о +7.4 +3.8 78 +7 +7 1022.3 1021.5 +7.3 +20.8
03 15.06 СВ 4 н/о н/о +6.9 +4.0 82 +4 +4 1020.8 1020.0 +6.7 +20.8
06 15.06 СВ 4 н/о н/о +6.3 +3.6 83 +3 +3 1020.5 1019.7 +5.9
09 15.06 СВ 1 н/о н/о +17.5 +11.8 69 +19 +19 1020.9 1020.1 +5.9 +17.5
12 15.06 З 3 н/о н/о +19.9 +4.5 36 +21 +21 комфорт 1021.6 1020.8 +5.9 +20.3
15 15.06 СЗ 1 н/о н/о +14.8 +8.3 65 +15 +15 1022.9 1022.1 +14.8 +20.3
18 15.06 СВ 4 н/о н/о +13.0 +7.7 70 +12 +12 1024.5 1023.7 +13.0 +20.3
21 15.06 С 3 н/о н/о +12.6 +6.9 68 +11 +11 1024.6 1023.8 +12.6 +20.3

 

Местоположение метеостанции Парк Tsitsikamma (Южная Африка): широта -34.03 долгота 23.91 высота над уровнем моря 5 м.

В архиве по умолчанию представлена погода в Парке Tsitsikamma за последнюю неделю. Архивные данные за месяц целиком и за предыдущие месяцы, начиная с января 2011 года, Вы можете получить, выбрав интересующий диапазон дат из раскрывающегося списка и нажав кнопку "Ввод!".


*Определитесь, кто Вы:
робот инопланетянин человек

Внимание! Время в таблицах - всемирное. Для получения местного времени необходимо прибавить поправку, которая равна 2 ч.

Смотрите также архив погоды в соседних городах и на ближайших метеорологических станциях:

Погода в Джоубертине (Южная Африка) (22 км)
Погода в Плеттенберг-Бей (Южная Африка) (54 км)
Погода в Найсне (Южная Африка) (77 км)
Погода в Патенсие (Южная Африка) (89 км)
Погода на Мысе St. Francis (Южная Африка) (90 км)
Погода в Уиллоуморе (Южная Африка) (92 км)
Погода в Аэропорту Джордж (Южная Африка) (141 км)
Погода в Эйтенхахе (Южная Африка) (146 км)
Погода в Порт-Элизабет (Южная Африка) (158 км)
Погода на Мысе Mossel Bay (Южная Африка) (163 км)

Пояснения к столбцам:

Ветер - указаны скорость ветра в м/с - средняя за 10 мин, порывы в срок и между сроками (в фигурных скобках) и направление, откуда дует ветер: С - северный, СВ - северо-восточный, В - восточный, ЮВ - юго-восточный, Ю - южный, ЮЗ - юго-западный, З - западный, СЗ - северо-западный.
Видимость - горизонтальная дальность видимости в метрах или километрах. При видимости от 1 до 10 км при отсутствии осадков обычно наблюдается дымка, при ухудшении видимости до 1 км и менее - туман. В сухую погоду видимость может ухудшаться дымом, пылью или мглою.
Явления - указаны атмосферные явления, наблюдавшиеся в срок или в последний час перед сроком; фигурными скобками обозначены явления, наблюдавшиеся между сроками (за 1-3 часа до срока); квадратными скобками обозначены град или гололедные отложения с указанием их диаметра в мм.
Облачность - указаны через наклонную черту общая и нижняя облачность в баллах и высота нижней границы облаков в метрах; квадратными скобками обозначены формы облаков: Ci - перистые, Cs - перисто-слоистые, Cc - перисто-кучевые, Ac - высококучевые, As - высокослоистые, Sc - слоисто-кучевые, Ns - слоисто-дождевые, Cu - кучевые, Cb - кучево-дождевые. Подробнее классификацию облаков см. в Атласе облаков (PDF).
T - Температура воздуха - температура, измеренная на высоте 2 м над землей.
Td - Температура точки росы - температура, при понижении до которой содержащийся в воздухе водяной пар достигнет насыщения.
f - Относительная влажность воздуха - влажноcть воздуха, измеренная на высоте 2 м над землей.
Te - Эффективная температура - температура, которую ощущает одетый по сезону человек в тени. Характеристика душности погоды. При расчете учитывается влияние влажности воздуха и скорости ветра на теплоощущения человека.
Tes - Эффективная температура на солнце - температура, которую ощущает человек, с поправкой на солнечный нагрев. Характеристика знойности погоды. Зависит от высоты солнца над горизонтом, облачности и скорости ветра. Ночью, в пасмурную погоду, а также при ветре 12 м/с и более поправка равна нулю.
P - Атмосферное давление - приведенное к уровню моря атмосферное давление.
Po - Атмосферное давление - измеренное на уровне метеостанции атмосферное давление.
Tmin - Минимальная температура - минимум температуры воздуха на высоте 2 м над землей.
Tmax - Максимальная температура - максимум температуры воздуха на высоте 2 м над землей.
R - Количество осадков - Количество выпавших осадков за период времени, мм. При наведении курсора мыши на число - период времени, за который выпало указанное количество осадков.
R24 - Количество осадков - Количество выпавших осадков за 24 часа, мм.
S - Снежный покров - Высота снежного покрова, см. При наведении курсора мыши на число - состояние снежного покрова и степень покрытия местности в баллах.